TimeCST,TemperatureF,Dew PointF,Humidity,Sea Level PressureIn,VisibilityMPH,Wind Direction,Wind SpeedMPH,Gust SpeedMPH,PrecipitationIn,Events,Conditions,WindDirDegrees,DateUTC
12:15 AM,68.0,35.6,30,29.78,10.0,SSW,16.1,-,N/A,,Clear,210,2012-11-10 06:15:00
12:35 AM,68.0,37.4,33,29.78,10.0,SSW,16.1,21.9,N/A,,Clear,210,2012-11-10 06:35:00
12:55 AM,68.0,37.4,33,29.78,10.0,SW,15.0,-,N/A,,Clear,220,2012-11-10 06:55:00
1:15 AM,68.0,37.4,33,29.78,10.0,SSW,21.9,27.6,N/A,,Clear,210,2012-11-10 07:15:00
1:35 AM,68.0,39.2,35,29.77,10.0,SSW,13.8,-,N/A,,Clear,210,2012-11-10 07:35:00
1:55 AM,68.0,41.0,37,29.76,10.0,SSW,19.6,26.5,N/A,,Clear,200,2012-11-10 07:55:00
2:15 AM,68.0,41.0,37,29.77,10.0,SSW,19.6,25.3,N/A,,Clear,210,2012-11-10 08:15:00
2:55 AM,68.0,42.8,40,29.79,10.0,SW,18.4,28.8,N/A,,Scattered Clouds,220,2012-11-10 08:55:00
3:15 AM,68.0,44.6,43,29.77,10.0,SSW,16.1,23.0,N/A,,Clear,210,2012-11-10 09:15:00
3:35 AM,68.0,48.2,49,29.76,10.0,SSW,17.3,26.5,N/A,,Clear,210,2012-11-10 09:35:00
3:55 AM,66.2,50.0,56,29.76,10.0,SSW,18.4,24.2,N/A,,Clear,210,2012-11-10 09:55:00
4:15 AM,64.4,50.0,59,29.77,10.0,SSW,18.4,-,N/A,,Clear,200,2012-11-10 10:15:00
4:35 AM,64.4,50.0,59,29.77,10.0,SSW,15.0,-,N/A,,Clear,200,2012-11-10 10:35:00
4:55 AM,62.6,50.0,63,29.77,10.0,South,15.0,-,N/A,,Clear,190,2012-11-10 10:55:00
5:15 AM,64.4,51.8,64,29.76,10.0,South,15.0,-,N/A,,Clear,190,2012-11-10 11:15:00
5:35 AM,62.6,51.8,68,29.76,10.0,South,16.1,-,N/A,,Clear,190,2012-11-10 11:35:00
5:55 AM,60.8,50.0,68,29.75,10.0,South,12.7,-,N/A,,Clear,180,2012-11-10 11:55:00
6:35 AM,60.8,53.6,77,29.74,10.0,South,16.1,23.0,N/A,,Clear,180,2012-11-10 12:35:00
6:55 AM,60.8,53.6,77,29.74,10.0,South,18.4,-,N/A,,Clear,180,2012-11-10 12:55:00
7:15 AM,60.8,53.6,77,29.74,10.0,South,17.3,-,N/A,,Clear,180,2012-11-10 13:15:00
7:35 AM,60.8,53.6,77,29.73,10.0,South,19.6,26.5,N/A,,Clear,180,2012-11-10 13:35:00
7:55 AM,60.8,53.6,77,29.73,10.0,South,20.7,29.9,N/A,,Clear,170,2012-11-10 13:55:00
8:15 AM,60.8,53.6,77,29.73,10.0,South,19.6,29.9,N/A,,Clear,180,2012-11-10 14:15:00
8:35 AM,62.6,53.6,72,29.73,10.0,South,25.3,31.1,N/A,,Clear,180,2012-11-10 14:35:00
8:55 AM,62.6,53.6,72,29.74,10.0,South,26.5,32.2,N/A,,Clear,190,2012-11-10 14:55:00
9:15 AM,64.4,53.6,68,29.74,10.0,South,21.9,31.1,N/A,,Clear,190,2012-11-10 15:15:00
9:35 AM,66.2,53.6,64,29.73,10.0,South,23.0,28.8,N/A,,Clear,190,2012-11-10 15:35:00
9:55 AM,68.0,53.6,60,29.73,10.0,SSW,26.5,32.2,N/A,,Clear,200,2012-11-10 15:55:00
10:15 AM,69.8,53.6,56,29.72,10.0,SSW,25.3,32.2,N/A,,Clear,200,2012-11-10 16:15:00
10:35 AM,69.8,53.6,56,29.71,10.0,SSW,20.7,33.4,N/A,,Clear,200,2012-11-10 16:35:00
10:55 AM,73.4,53.6,50,29.70,10.0,SSW,23.0,29.9,N/A,,Clear,200,2012-11-10 16:55:00
11:15 AM,73.4,51.8,47,29.69,10.0,South,23.0,32.2,N/A,,Clear,190,2012-11-10 17:15:00
11:35 AM,75.2,51.8,44,29.68,10.0,South,23.0,33.4,N/A,,Clear,190,2012-11-10 17:35:00
11:55 AM,75.2,51.8,44,29.68,10.0,SSW,24.2,33.4,N/A,,Clear,200,2012-11-10 17:55:00
12:15 PM,75.2,51.8,44,29.67,10.0,SSW,23.0,33.4,N/A,,Clear,200,2012-11-10 18:15:00
12:35 PM,77.0,50.0,39,29.65,10.0,SSW,24.2,32.2,N/A,,Clear,200,2012-11-10 18:35:00
12:55 PM,78.8,50.0,36,29.63,10.0,South,25.3,34.5,N/A,,Clear,190,2012-11-10 18:55:00
1:15 PM,78.8,50.0,36,29.62,10.0,South,26.5,34.5,N/A,,Clear,190,2012-11-10 19:15:00
1:35 PM,78.8,50.0,36,29.61,10.0,South,28.8,39.1,N/A,,Clear,190,2012-11-10 19:35:00
1:55 PM,78.8,50.0,36,29.60,10.0,South,28.8,38.0,N/A,,Clear,190,2012-11-10 19:55:00
2:15 PM,80.6,48.2,32,29.60,10.0,South,27.6,34.5,N/A,,Clear,190,2012-11-10 20:15:00
2:35 PM,78.8,48.2,34,29.60,10.0,South,25.3,32.2,N/A,,Clear,190,2012-11-10 20:35:00
2:55 PM,78.8,46.4,32,29.59,10.0,SSW,24.2,32.2,N/A,,Clear,200,2012-11-10 20:55:00
3:15 PM,78.8,44.6,30,29.59,10.0,SSW,27.6,36.8,N/A,,Scattered Clouds,210,2012-11-10 21:15:00
3:35 PM,78.8,44.6,30,29.58,10.0,SSW,24.2,32.2,N/A,,Scattered Clouds,200,2012-11-10 21:35:00
3:55 PM,80.6,46.4,30,29.58,10.0,South,19.6,32.2,N/A,,Mostly Cloudy,190,2012-11-10 21:55:00
4:15 PM,78.8,48.2,34,29.58,10.0,South,26.5,38.0,N/A,,Mostly Cloudy,190,2012-11-10 22:15:00
4:35 PM,78.8,48.2,34,29.58,10.0,South,28.8,35.7,N/A,,Mostly Cloudy,190,2012-11-10 22:35:00
4:55 PM,78.8,46.4,32,29.58,10.0,South,25.3,35.7,N/A,,Mostly Cloudy,190,2012-11-10 22:55:00
5:15 PM,77.0,48.2,36,29.57,10.0,South,20.7,29.9,N/A,,Mostly Cloudy,190,2012-11-10 23:15:00
5:35 PM,77.0,46.4,34,29.57,10.0,South,17.3,29.9,N/A,,Mostly Cloudy,190,2012-11-10 23:35:00
5:55 PM,77.0,46.4,34,29.58,10.0,SSW,19.6,26.5,N/A,,Mostly Cloudy,200,2012-11-10 23:55:00
6:15 PM,77.0,46.4,34,29.58,10.0,SSW,12.7,18.4,N/A,,Scattered Clouds,200,2012-11-11 00:15:00
6:35 PM,77.0,46.4,34,29.59,10.0,South,17.3,20.7,N/A,,Mostly Cloudy,190,2012-11-11 00:35:00
6:55 PM,75.2,46.4,36,29.59,10.0,South,16.1,20.7,N/A,,Mostly Cloudy,190,2012-11-11 00:55:00
7:15 PM,73.4,46.4,38,29.59,10.0,SSW,12.7,-,N/A,,Mostly Cloudy,200,2012-11-11 01:15:00
7:35 PM,73.4,46.4,38,29.61,10.0,South,9.2,17.3,N/A,,Overcast,190,2012-11-11 01:35:00
7:55 PM,73.4,35.6,25,29.63,10.0,West,11.5,-,N/A,,Overcast,270,2012-11-11 01:55:00
8:15 PM,71.6,33.8,25,29.63,10.0,WSW,5.8,-,N/A,,Overcast,250,2012-11-11 02:15:00
8:35 PM,69.8,33.8,27,29.62,10.0,WSW,5.8,-,N/A,,Overcast,240,2012-11-11 02:35:00
8:55 PM,68.0,33.8,28,29.64,10.0,SW,5.8,-,N/A,,Overcast,230,2012-11-11 02:55:00
9:15 PM,64.4,33.8,32,29.67,10.0,SSW,6.9,-,N/A,,Overcast,200,2012-11-11 03:15:00
9:35 PM,68.0,33.8,28,29.69,10.0,WSW,10.4,16.1,N/A,,Overcast,240,2012-11-11 03:35:00
10:35 PM,64.4,32.0,30,29.72,10.0,West,8.1,-,N/A,,Mostly Cloudy,280,2012-11-11 04:35:00
10:55 PM,62.6,32.0,32,29.74,10.0,WNW,12.7,18.4,N/A,,Mostly Cloudy,290,2012-11-11 04:55:00
11:15 PM,62.6,28.4,27,29.75,10.0,West,13.8,20.7,N/A,,Overcast,280,2012-11-11 05:15:00
11:35 PM,62.6,28.4,27,29.75,10.0,West,12.7,-,N/A,,Overcast,270,2012-11-11 05:35:00
11:55 PM,62.6,26.6,26,29.75,10.0,WNW,11.5,18.4,N/A,,Overcast,290,2012-11-11 05:55:00